[[{"header":{"parameterUnit":"m.s-1","parameterCategory":1,"la1":30.2991,"la2":30.254,"lo1":-89.0895,"lo2":-89.0444,"dy":0.0017,"dx":0.0017,"nx":28,"ny":28,"refTime":"2024-06-10T03:00:00:Z","depth":0,"parameterNumber":2,"parameterNumberName":"U-component_of_WINDS"},"data":[0,0,0,0,0,0,0,0,0,0,0,0,0,0,0,0,0,0,0,0,0,0,0,0,0,0,0,0,0,0,0,0,0,0,0,0,0,0,0,0,0,0,0,0,0,0,0,0,0,0,0,0,0,0,0,0,0,0,0.5964,0.5968,0,0.6268,0.6272,0.6275,0.6409,0.6409,0.6408,0.6408,0.6721,0.6729,0.6738,0,0,0,0,0,0,0,0,0,0,0,0,0,0.5505,0.5513,0.5964,0.5968,0.5972,0.6267,0.6272,0.6276,0.6409,0.6409,0.6408,0.6408,0.6718,0.6728,0.6739,0,0,0,0,0,0,0,0,0,0,0,0,0,0.5746,0.5515,0.5963,0.6074,0.6087,0.6267,0.6272,0.6277,0.6409,0.6409,0.6408,0.6408,0.6715,0.6727,0.674,0.6833,0,0,0.678,0.6786,0,0,0,0,0,0,0,0,0.5732,0.5763,0.6054,0.6067,0.6081,0.63,0.6225,0.6464,0.641,0.6287,0.6408,0.6407,0.6581,0.6605,0.6664,0.6848,0.6861,0.6781,0.6789,0.6795,0.6798,0,0,0,0,0,0,0,0.5715,0.5751,0.6084,0.6058,0.6075,0.611,0.6144,0.6271,0.6434,0.6298,0.6308,0.6342,0.6589,0.6651,0.6672,0.6866,0.6781,0.6792,0.6801,0.6806,0.7149,0.715,0,0,0,0,0,0,0.568,0.5736,0.6075,0.6094,0.5902,0.6119,0.6156,0.6231,0.6433,0.6463,0.6342,0.6347,0.6629,0.6657,0.6684,0.681,0.6795,0.6807,0.6814,0.7147,0.7149,0.715,0,0,0,0,0,0,0.567,0.5709,0.6063,0.5918,0.5965,0.6127,0.621,0.6237,0.6299,0.6467,0.6497,0.6375,0.6629,0.6665,0.6797,0.6823,0.6813,0.6825,0.7146,0.7148,0.715,0.7061,0,0,0,0,0,0,0.5656,0.5704,0.574,0.5917,0.5973,0.6168,0.6211,0.6243,0.6321,0.633,0.6506,0.6534,0.6632,0.6776,0.6809,0.684,0.6835,0.7144,0.7147,0.7149,0.7062,0.7059,0.7057,0,0,0,0,0,0.5639,0.5702,0.5741,0.5781,0.602,0.6169,0.6201,0.6311,0.6322,0.6361,0.647,0.6529,0.6814,0.6788,0.6827,0.6862,0.7143,0.7146,0.7149,0.7063,0.706,0.7057,0,0,0,0,0,0,0.5522,0.5727,0.5772,0.5894,0.6013,0.6191,0.6242,0.6303,0.6422,0.6426,0.6559,0.6597,0.6718,0.6804,0.6771,0.6967,0.6984,0.6995,0.6906,0.6904,0.6901,0.6879,0.6846,0,0,0,0,0,0.551,0.5613,0.5787,0.5878,0.5935,0.6078,0.6147,0.6223,0.6352,0.6403,0.6521,0.6645,0.6764,0.6839,0.6956,0.7075,0.7118,0.7119,0.7117,0.7114,0.7122,0.7196,0.72,0.716,0.716,0.716,0,0,0.5487,0.5612,0.5668,0.5857,0.5959,0.6065,0.612,0.6228,0.6309,0.642,0.6551,0.6643,0.6791,0.6917,0.6979,0.6992,0.7143,0.7117,0.7114,0.7124,0.7199,0.7203,0.7206,0.7162,0.7161,0.7161,0,0,0.5499,0.5602,0.5691,0.5793,0.5946,0.6042,0.6063,0.6234,0.6299,0.6434,0.6521,0.662,0.6819,0.6922,0.7001,0.7058,0.7119,0.7093,0.708,0.7151,0.7154,0.7158,0.7181,0.7188,0.71,0.71,0.71,0,0.545,0.5612,0.5729,0.5835,0.5917,0.6024,0.6117,0.621,0.6394,0.6449,0.6462,0.6719,0.6825,0.698,0.6994,0.7053,0.7085,0.7073,0.7144,0.7149,0.7154,0.7178,0.7186,0.7096,0.7097,0.7097,0.7097,0,0.5547,0.5659,0.5712,0.5889,0.5978,0.6076,0.6211,0.6287,0.6356,0.6451,0.659,0.6722,0.6871,0.6913,0.698,0.7079,0.7083,0.7118,0.7139,0.7152,0.7177,0.7187,0.709,0.7092,0.7093,0.7094,0,0,0.549,0.5734,0.5752,0.5836,0.6015,0.6105,0.621,0.6356,0.6421,0.6545,0.6639,0.6809,0.6844,0.6933,0.7014,0.7075,0.7118,0.7104,0.711,0.7104,0.7239,0.7213,0.7221,0.7159,0.7161,0.7163,0.7228,0,0.5529,0.5721,0.5832,0.598,0.6087,0.6193,0.6286,0.6407,0.65,0.6606,0.671,0.6829,0.6864,0.692,0.6986,0.7098,0.7147,0.7095,0.725,0.7254,0.7211,0.7234,0.7206,0.726,0.7238,0.724,0.7241,0,0.5598,0.5722,0.588,0.6053,0.6102,0.6183,0.6329,0.6428,0.657,0.6634,0.6736,0.6818,0.6937,0.6948,0.7117,0.7079,0.715,0.7215,0.722,0.724,0.7249,0.7256,0.728,0.7289,0.7257,0.7256,0.7255,0,0.5544,0.5751,0.5874,0.5942,0.6145,0.6201,0.6288,0.643,0.6512,0.664,0.6696,0.6836,0.6913,0.7021,0.714,0.7137,0.7298,0.7318,0.7357,0.7354,0.7386,0.7382,0.7423,0.7428,0.7428,0.7428,0.7427,0,0.5575,0.5668,0.5853,0.5928,0.6038,0.6167,0.6273,0.6369,0.6495,0.6594,0.6694,0.6784,0.6935,0.7046,0.714,0.7267,0.7301,0.7358,0.7382,0.735,0.7343,0.7398,0.7398,0.743,0.743,0.7429,0.7429,0,0.5532,0.5659,0.5801,0.5984,0.6032,0.6105,0.6263,0.6342,0.6442,0.6566,0.6603,0.676,0.6896,0.7026,0.7207,0.7271,0.7399,0.7429,0.7351,0.7364,0.7397,0.7393,0.7476,0.7495,0.7484,0.7484,0.7484,0,0.5544,0.5619,0.5811,0.5885,0.5971,0.6087,0.6173,0.6304,0.639,0.6561,0.6621,0.6764,0.6886,0.7098,0.723,0.7371,0.7407,0.7427,0.7429,0.7396,0.7411,0.7405,0.7416,0.7424,0.7423,0.7423,0.7422,0,0.5553,0.5614,0.5733,0.5876,0.5976,0.6095,0.6217,0.6272,0.6428,0.652,0.666,0.6755,0.6942,0.7085,0.7242,0.7335,0.7406,0.7421,0.7438,0.7406,0.7359,0.7388,0.7345,0.7418,0.7419,0.7419,0.7419,0.7419,0.554,0.5614,0.5762,0.5893,0.6,0.6113,0.6198,0.6311,0.643,0.6592,0.6664,0.6807,0.6953,0.7171,0.7264,0.738,0.7396,0.742,0.7426,0.743,0.7425,0.7339,0.7409,0.7409,0.7409,0.741,0.741,0,0.5557,0.5658,0.5778,0.5947,0.6052,0.611,0.6251,0.6335,0.6459,0.6589,0.6708,0.6873,0.7013,0.7158,0.7307,0.7372,0.7409,0.7407,0.7404,0.7426,0.74,0.7372,0.7375,0.7375,0.7375,0.7375,0.7375,0.7375,0.5577,0.5706,0.5785,0.597,0.6072,0.6213,0.6288,0.6395,0.6501,0.668,0.6797,0.6891,0.7029,0.719,0.7322,0.7362,0.7413,0.7403,0.7451,0.7425,0.7427,0.7428,0.7403,0.7412,0.7412,0.7468,0.7468,0.7468]},{"header":{"parameterUnit":"m.s-1","parameterCategory":1,"la1":30.2991,"la2":30.254,"lo1":-89.0895,"lo2":-89.0444,"dy":0.0017,"dx":0.0017,"nx":28,"ny":28,"refTime":"2024-06-10T03:00:00:Z","depth":0,"parameterNumber":3,"parameterNumberName":"V-component_of_WINDS"},"data":[0,0,0,0,0,0,0,0,0,0,0,0,0,0,0,0,0,0,0,0,0,0,0,0,0,0,0,0,0,0,0,0,0,0,0,0,0,0,0,0,0,0,0,0,0,0,0,0,0,0,0,0,0,0,0,0,0,0,0.5711,0.5711,0,0.5656,0.5655,0.5655,0.5616,0.5615,0.5615,0.5615,0.5553,0.5552,0.555,0,0,0,0,0,0,0,0,0,0,0,0,0,0.5779,0.5778,0.5712,0.5711,0.571,0.5656,0.5655,0.5655,0.5616,0.5615,0.5615,0.5615,0.5553,0.5552,0.555,0,0,0,0,0,0,0,0,0,0,0,0,0,0.5739,0.5778,0.5712,0.5684,0.5681,0.5656,0.5655,0.5654,0.5616,0.5615,0.5615,0.5614,0.5554,0.5552,0.555,0.5546,0,0,0.5544,0.5543,0,0,0,0,0,0,0,0,0.5742,0.5737,0.5689,0.5686,0.5683,0.5642,0.5657,0.5618,0.5616,0.5641,0.5615,0.5614,0.5583,0.5578,0.5569,0.5543,0.554,0.5543,0.5542,0.5541,0.5541,0,0,0,0,0,0,0,0.5745,0.5739,0.5689,0.5688,0.5685,0.5673,0.5667,0.5649,0.5615,0.5638,0.5635,0.563,0.5581,0.5571,0.5567,0.554,0.5543,0.5542,0.554,0.554,0.5508,0.5508,0,0,0,0,0,0,0.5752,0.5742,0.5691,0.5688,0.5712,0.5673,0.5666,0.5656,0.5615,0.5608,0.563,0.5628,0.5574,0.5569,0.5565,0.5557,0.5541,0.5539,0.5538,0.5507,0.5508,0.5508,0,0,0,0,0,0,0.5754,0.5748,0.5693,0.5714,0.5706,0.5672,0.5661,0.5655,0.5645,0.5609,0.5602,0.5626,0.5574,0.5567,0.5551,0.5554,0.5538,0.5537,0.5507,0.5507,0.5508,0.5542,0,0,0,0,0,0,0.5756,0.5749,0.5748,0.5714,0.5705,0.5682,0.5661,0.5654,0.5642,0.5639,0.5603,0.5597,0.5573,0.5555,0.5549,0.5551,0.5535,0.5506,0.5507,0.5508,0.5541,0.5544,0.5547,0,0,0,0,0,0.5759,0.5759,0.5748,0.5742,0.5704,0.5683,0.5677,0.5651,0.5642,0.564,0.5617,0.5598,0.5555,0.5553,0.5547,0.5548,0.5506,0.5507,0.5508,0.5539,0.5543,0.5547,0,0,0,0,0,0,0.5792,0.5754,0.5742,0.5731,0.5711,0.5676,0.5673,0.5656,0.5637,0.5634,0.5601,0.5594,0.5581,0.5563,0.5561,0.5542,0.5528,0.5528,0.5554,0.5558,0.5561,0.5565,0.5533,0,0,0,0,0,0.5799,0.5786,0.5753,0.5747,0.5737,0.5707,0.5697,0.5679,0.5656,0.5646,0.5622,0.5599,0.558,0.5568,0.5549,0.5538,0.5529,0.5536,0.5539,0.5542,0.5541,0.5534,0.5537,0.5511,0.5511,0.5511,0,0,0.5811,0.5789,0.5783,0.5753,0.5735,0.5722,0.57,0.5687,0.5676,0.5644,0.5627,0.5609,0.558,0.5567,0.556,0.5552,0.5547,0.5543,0.5545,0.5543,0.5535,0.5538,0.554,0.5511,0.5511,0.5511,0,0,0.5827,0.581,0.5803,0.5785,0.5759,0.5739,0.5738,0.5706,0.5693,0.5676,0.5652,0.5638,0.5606,0.5587,0.5573,0.5584,0.5565,0.5578,0.5593,0.5587,0.5589,0.559,0.5593,0.5595,0.5578,0.5578,0.5578,0,0.5845,0.5826,0.5801,0.5789,0.5776,0.5749,0.5741,0.5725,0.5693,0.5684,0.5676,0.5637,0.5615,0.5597,0.56,0.559,0.5586,0.5581,0.5591,0.5592,0.5593,0.5595,0.5597,0.558,0.558,0.5579,0.5579,0,0.5849,0.5836,0.5833,0.5805,0.5792,0.5783,0.5755,0.5745,0.5728,0.5709,0.5692,0.5666,0.5641,0.5636,0.5619,0.5615,0.5611,0.5597,0.5582,0.5598,0.5599,0.56,0.5582,0.5582,0.5581,0.5581,0,0,0.5883,0.5843,0.5842,0.5829,0.5799,0.5787,0.5776,0.5753,0.5745,0.5724,0.5713,0.5688,0.5675,0.5659,0.564,0.5634,0.5643,0.5621,0.562,0.5626,0.5637,0.5647,0.5648,0.5631,0.5631,0.5632,0.5639,0,0.5894,0.5874,0.5851,0.5838,0.5825,0.58,0.579,0.5769,0.5751,0.5736,0.5715,0.5698,0.5683,0.5674,0.5667,0.5644,0.5645,0.5643,0.5619,0.5619,0.5626,0.5649,0.5659,0.5667,0.5639,0.564,0.564,0,0.5903,0.5885,0.5872,0.5843,0.5837,0.5829,0.5806,0.5793,0.5769,0.5756,0.574,0.5719,0.5705,0.5693,0.5672,0.5671,0.566,0.5647,0.5647,0.5642,0.5629,0.5644,0.5669,0.567,0.564,0.564,0.564,0,0.5928,0.5901,0.5889,0.5879,0.5845,0.584,0.5826,0.5801,0.579,0.577,0.5761,0.5739,0.5727,0.571,0.5684,0.5678,0.5665,0.5651,0.5653,0.5654,0.565,0.5651,0.5673,0.5645,0.5645,0.5645,0.5645,0,0.5941,0.5934,0.59,0.5893,0.5884,0.5858,0.5849,0.5832,0.5811,0.5798,0.5775,0.5763,0.5731,0.5715,0.5695,0.568,0.5674,0.5663,0.5657,0.5664,0.5666,0.5655,0.5654,0.5645,0.5645,0.5645,0.5645,0,0.5967,0.5945,0.593,0.5901,0.5893,0.5887,0.5861,0.5852,0.5833,0.5818,0.5813,0.5783,0.5764,0.5737,0.5709,0.5695,0.5683,0.5674,0.5691,0.5688,0.5691,0.5691,0.5706,0.5707,0.568,0.5681,0.5681,0,0.5977,0.5971,0.5941,0.5932,0.5919,0.5905,0.5893,0.5867,0.5856,0.5829,0.5823,0.5803,0.5785,0.5755,0.5729,0.5707,0.5698,0.5705,0.5694,0.5702,0.5697,0.5697,0.5696,0.5707,0.5707,0.5708,0.5708,0,0.5996,0.5985,0.597,0.5952,0.5939,0.5922,0.5904,0.5898,0.5868,0.5857,0.5838,0.5824,0.5797,0.5776,0.5751,0.5734,0.5716,0.5712,0.5711,0.5718,0.5728,0.5722,0.5697,0.5711,0.5711,0.5711,0.5711,0.571,0.6013,0.6006,0.5985,0.5969,0.5953,0.5938,0.5928,0.5909,0.5894,0.587,0.5856,0.5838,0.5814,0.5779,0.5763,0.5747,0.574,0.5739,0.5738,0.5738,0.574,0.5732,0.5743,0.5742,0.5742,0.5742,0.5742,0,0.603,0.6015,0.6001,0.5978,0.5965,0.5952,0.5932,0.5921,0.5906,0.5887,0.587,0.5848,0.5828,0.5802,0.578,0.5773,0.5764,0.5767,0.5767,0.5763,0.5748,0.5751,0.5775,0.5775,0.5775,0.5775,0.5775,0.5775,0.6037,0.6025,0.6013,0.5993,0.5977,0.5961,0.5951,0.5936,0.592,0.5897,0.5882,0.5866,0.5843,0.5819,0.58,0.5792,0.5785,0.5791,0.5781,0.5767,0.5764,0.5762,0.5764,0.579,0.579,0.5797,0.5797,0.5798]}]]